Location: Deneb Observatory
(47.2267°N, 100.4953°W)
Time: 23:07:00
(UTC-06:00)

Iridium 66 - Visible Passes

Search period start: 22 February 2017 00:00
Search period end: 04 March 2017 00:00
Orbit: 776 x 779 km, 86.4° (Epoch: 22 February)

Date Brightness Start Highest point End Pass type
(mag) Time Alt. Az. Time Alt. Az. Time Alt. Az.
22 Feb 6.9 19:12:17 10° NNE 19:16:43 27° ENE 19:21:06 10° SE visible
22 Feb 7.2 20:52:41 10° NNW 20:57:35 42° W 21:02:29 10° SSW visible
23 Feb 6.2 20:18:57 10° N 20:24:11 74° W 20:29:23 10° S visible
23 Feb 9.2 22:03:21 10° WNW 22:03:54 10° WNW 22:04:28 10° WNW visible
24 Feb 6.0 19:45:25 10° N 19:50:38 64° E 19:55:49 10° SSE visible
24 Feb 8.6 21:27:20 10° NW 21:30:48 18° WNW 21:34:16 10° WSW visible
25 Feb 6.5 19:12:07 10° NNE 19:16:58 37° E 19:21:46 10° SE visible
25 Feb 7.8 20:53:03 10° NNW 20:57:35 31° W 21:02:05 10° SW visible
26 Feb 6.8 20:19:09 10° NNW 20:24:14 53° W 20:29:17 10° SSW visible
27 Feb 6.0 19:45:30 10° N 19:50:46 89° E 19:56:00 10° S visible
27 Feb 9.1 21:28:22 10° NW 21:30:40 13° WNW 21:32:58 10° W visible
28 Feb 6.2 19:12:03 10° N 19:17:10 51° E 19:22:15 10° SSE visible
28 Feb 8.4 20:53:33 10° NNW 20:57:31 22° W 21:01:28 10° SW visible
01 Mar 9.2 06:34:45 10° ESE 06:37:15 14° ENE 06:39:45 10° NE visible
01 Mar 7.5 20:19:26 10° NNW 20:24:15 38° W 20:29:00 10° SSW visible
02 Mar 6.5 19:45:39 10° N 19:50:51 66° W 19:56:01 10° S visible
03 Mar 6.0 19:12:05 10° N 19:17:20 72° E 19:22:32 10° S visible
03 Mar 9.0 20:54:16 10° NW 20:57:25 16° WNW 21:00:32 10° WSW visible
